Location: The Jewett Observatory
(46.7288°N, 117.1525°W)
Time: 15:05:00
(UTC-07:00)

Amateur Radio Satellites - All Passes

Search period start: 25 October 2014 14:35
Search period end: 26 October 2014 14:35
Location: The Jewett Observatory, 46.7288°N, 117.1525°W

Satellite Date Start Highest point End Downlink Frequencies (MHz)
Time Altitude Azimuth
Oscar 19 25 Oct 14:35:04 14:39:13 24° 267° (W) 14:43:23 437.125 CW, 437.150 USB
Sapphire 25 Oct 14:36:45 14:39:37 15° 257° (WSW) 14:42:29 437.095 MHz 1200 baud AX-25 AFSK
TMSAT-1 25 Oct 14:42:29 14:47:46 75° 73° (ENE) 14:53:05 436.925 FM
SO-50 25 Oct 14:53:54 14:57:34 23° 325° (NW) 15:01:18 436.795 FM
AO-27 25 Oct 14:53:55 14:58:42 37° 263° (W) 15:03:33 436.795 MHz FM
AO-Echo 25 Oct 15:09:55 15:13:40 22° 269° (W) 15:17:33 ?
AO-7 25 Oct 15:14:49 15:22:46 54° 62° (ENE) 15:30:45 29.400 - 29.500 MHz
Uosat F 25 Oct 15:16:12 15:20:22 27° 63° (ENE) 15:24:33 435.120 FM
JAS-1B 25 Oct 15:17:46 15:21:18 16° 271° (W) 15:24:47 435.800 - 435.900 CW/SSB
KITSAT 1 25 Oct 15:43:02 15:49:11 23° 341° (NNW) 15:55:20 435.175 FM
ISS 25 Oct 15:43:07 15:46:13 34° 358° (N) 15:49:18 145.800 FM
Uribyol 2 25 Oct 15:43:53 15:46:33 14° 272° (W) 15:49:15 436.500 FM
ITAMSAT 1 25 Oct 15:50:30 15:52:52 13° 273° (W) 15:55:14 435.822 SSB
Saudisat 1A 25 Oct 15:52:11 15:56:38 78° 52° (NE) 16:01:03 436.775 MHz
JAS-2 25 Oct 15:57:19 16:02:09 24° 55° (NE) 16:07:25 435.800 - 435.900 CW/SSB, 435.910 FM
UOSAT-12 25 Oct 16:12:14 16:16:25 31° 320° (NW) 16:20:41 437.025 FM, 437.400 FM
Gurwin Techsat 1B 25 Oct 16:14:38 16:17:40 15° 272° (W) 16:20:43 435.225 FM
TMSAT-1 25 Oct 16:25:00 16:28:16 16° 271° (W) 16:31:33 436.925 FM
Uosat F 25 Oct 16:54:08 16:58:56 45° 261° (W) 17:03:47 435.120 FM
OPAL 25 Oct 16:58:37 17:01:19 15° 91° (E) 17:04:00 ?
AO-7 25 Oct 17:08:10 17:15:47 40° 262° (W) 17:23:28 29.400 - 29.500 MHz
ISS 25 Oct 17:20:03 17:23:20 51° 18° (NNE) 17:26:37 145.800 FM
Hamsat 25 Oct 17:29:59 17:34:08 63° 74° (ENE) 17:38:18 145.90 MHz
Saudisat 1A 25 Oct 17:33:16 17:35:37 14° 250° (WSW) 17:37:57 436.775 MHz
JAS-2 25 Oct 17:40:22 17:46:24 76° 257° (WSW) 17:53:21 435.800 - 435.900 CW/SSB, 435.910 FM
KITSAT 1 25 Oct 17:42:14 17:47:57 20° 11° (N) 17:53:39 435.175 FM
UOSAT-12 25 Oct 17:56:35 17:58:04 11° 343° (NNW) 17:59:33 437.025 FM, 437.400 FM
SO-67 25 Oct 18:06:41 18:09:08 19° 66° (ENE) 18:11:35 435.3500 MHz FM
AO-40 25 Oct 18:08:00 23:41:37 37° 183° (S) 07:29:07 Beacon 2401.320
SO-50 25 Oct 18:21:42 18:22:44 11° 15° (NNE) 18:23:47 436.795 FM
OPAL 25 Oct 18:35:48 18:40:47 77° 289° (WNW) 18:45:43 ?
STRAND 1 25 Oct 18:43:33 18:47:26 21° 92° (E) 18:51:16 ?
HO-68 25 Oct 18:51:56 18:56:43 20° 49° (NE) 19:01:30 435.675 MHz FM
ISS 25 Oct 18:56:52 18:59:59 36° 216° (SW) 19:03:05 145.800 FM
Hamsat 25 Oct 19:08:27 19:10:31 13° 271° (W) 19:12:35 145.90 MHz
JAS-2 25 Oct 19:30:09 19:32:54 13° 280° (W) 19:35:48 435.800 - 435.900 CW/SSB, 435.910 FM
KITSAT 1 25 Oct 19:38:21 19:45:54 41° 39° (NE) 19:53:24 435.175 FM
SO-67 25 Oct 19:38:50 19:41:55 30° 264° (W) 19:45:01 435.3500 MHz FM
SO-50 25 Oct 20:00:46 20:04:55 28° 38° (NE) 20:09:06 436.795 FM
OPAL 25 Oct 20:16:42 20:18:51 13° 308° (NW) 20:21:00 ?
RS-15 25 Oct 20:16:59 20:22:54 16° 96° (E) 20:28:47 29.354 - 29.394 USB, Beacon 29.352 USB
STRAND 1 25 Oct 20:21:55 20:26:59 57° 290° (WNW) 20:32:00 ?
HO-68 25 Oct 20:36:12 20:43:21 78° 70° (ENE) 20:50:34 435.675 MHz FM
ZACube-1 25 Oct 20:43:13 20:45:19 13° 59° (ENE) 20:47:25 437.345 MHz
UKube-1 25 Oct 20:44:23 20:48:09 29° 66° (ENE) 20:51:57 145.840 MHz, 145.915 MHz
UOSAT-12 25 Oct 21:18:58 21:22:29 20° 32° (NNE) 21:25:59 437.025 FM, 437.400 FM
Oscar 11 25 Oct 21:24:21 21:28:37 63° 73° (ENE) 21:32:55 145.825 FM, Beacon 2401.500 USB
FUNcube-1 25 Oct 21:25:25 21:29:25 31° 67° (ENE) 21:33:22 145.950 - 145.970 MHz USB
KITSAT 1 25 Oct 21:33:48 21:41:47 65° 242° (WSW) 21:49:42 435.175 FM
SO-50 25 Oct 21:41:02 21:45:48 59° 238° (WSW) 21:50:36 436.795 FM
Oscar 10/S400 25 Oct 22:10:15 22:58:19 38° 211° (SSW) 04:25:45 145.825 - 145.975 CW/USB, Beacon 145.810 USB
ZACube-1 25 Oct 22:16:30 22:21:05 86° 257° (WSW) 22:25:38 437.345 MHz
UKube-1 25 Oct 22:20:25 22:24:17 31° 264° (W) 22:28:12 145.840 MHz, 145.915 MHz
RS-15 25 Oct 22:22:10 22:33:00 69° 119° (ESE) 22:43:48 29.354 - 29.394 USB, Beacon 29.352 USB
HO-68 25 Oct 22:26:26 22:31:49 22° 270° (W) 22:37:14 435.675 MHz FM
MaSat-1 25 Oct 22:48:42 22:51:21 17° 108° (ESE) 22:53:51 437.345 MHz
UOSAT-12 25 Oct 22:58:33 23:03:19 88° 53° (NE) 23:07:59 437.025 FM, 437.400 FM
FUNcube-1 25 Oct 23:01:40 23:05:45 31° 264° (W) 23:09:47 145.950 - 145.970 MHz USB
Oscar 11 25 Oct 23:02:56 23:05:14 14° 271° (W) 23:07:32 145.825 FM, Beacon 2401.500 USB
KITSAT 1 25 Oct 23:32:07 23:35:35 13° 262° (W) 23:39:03 435.175 FM
MaSat-1 26 Oct 00:22:51 00:26:43 47° 302° (WNW) 00:30:12 437.345 MHz
RS-15 26 Oct 00:35:35 00:46:00 47° 326° (NW) 00:56:34 29.354 - 29.394 USB, Beacon 29.352 USB
UOSAT-12 26 Oct 00:40:30 00:42:46 14° 252° (WSW) 00:45:01 437.025 FM, 437.400 FM
JAS-1B 26 Oct 01:04:10 01:08:39 18° 90° (E) 01:13:35 435.800 - 435.900 CW/SSB
Oscar 19 26 Oct 01:05:03 01:07:29 13° 87° (E) 01:09:54 437.125 CW, 437.150 USB
AO-Echo 26 Oct 01:35:21 01:38:19 15° 88° (E) 01:41:17 ?
Oscar 16 26 Oct 01:49:24 01:54:04 34° 96° (E) 01:58:41 437.025 USB, Beacon 2401.1428
Uribyol 2 26 Oct 02:11:41 02:15:54 24° 93° (E) 02:20:04 436.500 FM
ITAMSAT 1 26 Oct 02:17:58 02:22:19 26° 94° (E) 02:26:38 435.822 SSB
PCSat 26 Oct 02:19:26 02:21:08 11° 102° (ESE) 02:22:49 145.825 MHz
Oscar 19 26 Oct 02:42:22 02:47:31 85° 286° (WNW) 02:52:38 437.125 CW, 437.150 USB
Gurwin Techsat 1B 26 Oct 02:45:36 02:50:00 26° 93° (E) 02:54:22 435.225 FM
RS-15 26 Oct 02:52:31 03:01:50 30° 359° (N) 03:11:20 29.354 - 29.394 USB, Beacon 29.352 USB
JAS-1B 26 Oct 02:53:16 02:59:53 89° 107° (ESE) 03:07:50 435.800 - 435.900 CW/SSB
TMSAT-1 26 Oct 02:56:03 03:00:18 24° 92° (E) 03:04:31 436.925 FM
AO-27 26 Oct 03:03:26 03:08:40 65° 102° (ESE) 03:13:51 436.795 MHz FM
AO-Echo 26 Oct 03:12:23 03:17:43 83° 286° (WNW) 03:23:02 ?
AO-7 26 Oct 03:16:08 03:19:02 12° 83° (E) 03:21:56 29.400 - 29.500 MHz
Oscar 16 26 Oct 03:28:47 03:33:24 35° 294° (WNW) 03:38:00 437.025 USB, Beacon 2401.1428
Sapphire 26 Oct 03:36:07 03:41:16 47° 115° (ESE) 03:46:27 437.095 MHz 1200 baud AX-25 AFSK
Uribyol 2 26 Oct 03:50:36 03:55:38 50° 291° (WNW) 04:00:37 436.500 FM
ITAMSAT 1 26 Oct 03:57:01 04:02:02 47° 292° (WNW) 04:06:59 435.822 SSB
PCSat 26 Oct 03:58:11 04:03:35 75° 120° (ESE) 04:09:01 145.825 MHz
OPAL 26 Oct 04:15:16 04:20:00 39° 64° (ENE) 04:24:41 ?
Oscar 19 26 Oct 04:23:30 04:26:05 14° 304° (NW) 04:28:41 437.125 CW, 437.150 USB
Gurwin Techsat 1B 26 Oct 04:25:06 04:30:13 48° 291° (WNW) 04:35:17 435.225 FM
TMSAT-1 26 Oct 04:35:22 04:40:31 52° 291° (WNW) 04:45:38 436.925 FM
AO-27 26 Oct 04:43:54 04:47:43 21° 301° (WNW) 04:51:31 436.795 MHz FM
JAS-1B 26 Oct 04:45:22 04:49:57 21° 303° (WNW) 04:55:01 435.800 - 435.900 CW/SSB
JAS-2 26 Oct 04:47:09 04:52:21 19° 85° (E) 04:57:32 435.800 - 435.900 CW/SSB, 435.910 FM
AO-Echo 26 Oct 04:52:52 04:55:41 15° 304° (NW) 04:58:30 ?
Uosat F 26 Oct 04:58:41 05:03:33 45° 99° (E) 05:08:22 435.120 FM
AO-7 26 Oct 05:05:19 05:13:34 61° 104° (ESE) 05:21:47 29.400 - 29.500 MHz
RS-15 26 Oct 05:07:20 05:17:49 45° 32° (NNE) 05:28:37 29.354 - 29.394 USB, Beacon 29.352 USB
Sapphire 26 Oct 05:19:56 05:24:51 34° 315° (NW) 05:29:48 437.095 MHz 1200 baud AX-25 AFSK
PCSat 26 Oct 05:43:10 05:47:34 25° 321° (NW) 05:52:00 145.825 MHz
OPAL 26 Oct 05:54:23 05:58:56 31° 262° (W) 06:03:27 ?
STRAND 1 26 Oct 06:01:58 06:06:45 40° 67° (ENE) 06:11:33 ?
JAS-2 26 Oct 06:30:34 06:38:24 82° 104° (ESE) 06:46:14 435.800 - 435.900 CW/SSB, 435.910 FM
Uosat F 26 Oct 06:37:55 06:42:07 27° 297° (WNW) 06:46:18 435.120 FM
Hamsat 26 Oct 06:48:26 06:52:39 88° 103° (ESE) 06:56:53 145.90 MHz
AO-7 26 Oct 06:58:36 07:05:59 37° 304° (NW) 07:13:23 29.400 - 29.500 MHz
SO-67 26 Oct 06:59:56 07:01:53 14° 91° (E) 07:03:51 435.3500 MHz FM
Sapphire 26 Oct 07:08:13 07:10:01 12° 339° (NNW) 07:11:49 437.095 MHz 1200 baud AX-25 AFSK
RS-15 26 Oct 07:20:03 07:31:08 76° 239° (WSW) 07:42:43 29.354 - 29.394 USB, Beacon 29.352 USB
Saudisat 1A 26 Oct 07:40:08 07:44:31 74° 125° (SE) 07:48:56 436.775 MHz
STRAND 1 26 Oct 07:41:35 07:46:02 29° 265° (W) 07:50:32 ?
HO-68 26 Oct 08:04:16 08:06:20 11° 83° (E) 08:08:24 435.675 MHz FM
JAS-2 26 Oct 08:16:28 08:22:39 27° 303° (WNW) 08:28:55 435.800 - 435.900 CW/SSB, 435.910 FM
Hamsat 26 Oct 08:26:43 08:27:57 11° 301° (WNW) 08:29:11 145.90 MHz
MaSat-1 26 Oct 08:30:25 08:33:03 50° 58° (ENE) 08:35:27 437.345 MHz
SO-67 26 Oct 08:31:49 08:35:03 38° 288° (WNW) 08:38:17 435.3500 MHz FM
AO-7 26 Oct 08:54:20 08:56:24 11° 328° (NNW) 08:58:29 29.400 - 29.500 MHz
Saudisat 1A 26 Oct 09:21:10 09:24:34 21° 325° (NW) 09:27:58 436.775 MHz
RS-15 26 Oct 09:34:18 09:41:37 20° 261° (W) 09:49:10 29.354 - 29.394 USB, Beacon 29.352 USB
HO-68 26 Oct 09:48:19 09:55:29 63° 103° (ESE) 10:02:35 435.675 MHz FM
ZACube-1 26 Oct 10:04:27 10:06:50 15° 89° (E) 10:09:11 437.345 MHz
UKube-1 26 Oct 10:05:16 10:09:17 35° 97° (E) 10:13:16 145.840 MHz, 145.915 MHz
KITSAT 1 26 Oct 10:15:23 10:18:33 13° 97° (E) 10:21:43 435.175 FM
Sapphire 26 Oct 10:38:23 10:42:05 18° 33° (NNE) 10:45:47 437.095 MHz 1200 baud AX-25 AFSK
Oscar 11 26 Oct 10:45:05 10:49:25 87° 104° (ESE) 10:53:44 145.825 FM, Beacon 2401.500 USB
FUNcube-1 26 Oct 10:47:34 10:51:36 40° 98° (E) 10:55:31 145.950 - 145.970 MHz USB
PCSat 26 Oct 11:00:29 11:04:53 24° 39° (NE) 11:09:16 145.825 MHz
Oscar 16 26 Oct 11:34:18 11:35:45 11° 53° (NE) 11:37:12 437.025 USB, Beacon 2401.1428
HO-68 26 Oct 11:36:38 11:42:46 32° 303° (WNW) 11:48:53 435.675 MHz FM
ZACube-1 26 Oct 11:39:27 11:43:39 57° 288° (WNW) 11:47:45 437.345 MHz
ISS 26 Oct 11:41:35 11:43:39 16° 135° (SE) 11:45:44 145.800 FM
UKube-1 26 Oct 11:41:41 11:45:21 27° 295° (WNW) 11:48:59 145.840 MHz, 145.915 MHz
JAS-1B 26 Oct 11:55:22 11:58:53 17° 54° (NE) 12:02:24 435.800 - 435.900 CW/SSB
SO-50 26 Oct 11:59:25 12:02:57 23° 113° (ESE) 12:06:34 436.795 FM
KITSAT 1 26 Oct 12:04:24 12:12:19 63° 117° (ESE) 12:20:17 435.175 FM
Sapphire 26 Oct 12:21:04 12:26:31 71° 55° (NE) 12:31:56 437.095 MHz 1200 baud AX-25 AFSK
Oscar 11 26 Oct 12:23:22 12:24:56 12° 302° (WNW) 12:26:30 145.825 FM, Beacon 2401.500 USB
Oscar 19 26 Oct 12:23:59 12:28:16 28° 63° (ENE) 12:32:34 437.125 CW, 437.150 USB
FUNcube-1 26 Oct 12:24:29 12:27:45 22° 296° (WNW) 12:30:58 145.950 - 145.970 MHz USB
PCSat 26 Oct 12:43:27 12:48:54 76° 240° (WSW) 12:54:18 145.825 MHz
AO-27 26 Oct 12:46:56 12:50:43 21° 59° (ENE) 12:54:32 436.795 MHz FM
AO-Echo 26 Oct 12:50:44 12:54:44 25° 62° (ENE) 12:58:51 ?
Oscar 16 26 Oct 13:09:02 13:14:09 66° 72° (ENE) 13:19:16 437.025 USB, Beacon 2401.1428
UOSAT-12 26 Oct 13:14:50 13:17:03 13° 108° (ESE) 13:19:16 437.025 FM, 437.400 FM
ISS 26 Oct 13:16:36 13:19:56 87° 153° (SSE) 13:23:17 145.800 FM
Uribyol 2 26 Oct 13:32:05 13:37:05 48° 69° (ENE) 13:42:07 436.500 FM
ITAMSAT 1 26 Oct 13:38:33 13:43:36 52° 69° (ENE) 13:48:41 435.822 SSB
SO-50 26 Oct 13:38:44 13:43:10 52° 313° (NW) 13:47:46 436.795 FM
JAS-1B 26 Oct 13:43:02 13:48:54 82° 255° (WSW) 13:54:37 435.800 - 435.900 CW/SSB
KITSAT 1 26 Oct 14:00:36 14:08:09 41° 320° (NW) 14:15:45 435.175 FM
Oscar 19 26 Oct 14:02:29 14:07:25 45° 261° (W) 14:12:21 437.125 CW, 437.150 USB
Sapphire 26 Oct 14:05:33 14:09:23 20° 254° (WSW) 14:13:12 437.095 MHz 1200 baud AX-25 AFSK
Gurwin Techsat 1B 26 Oct 14:09:19 14:14:27 52° 70° (ENE) 14:19:37 435.225 FM
AO-7 26 Oct 14:16:58 14:23:36 28° 50° (NE) 14:30:15 29.400 - 29.500 MHz
TMSAT-1 26 Oct 14:19:23 14:24:27 48° 69° (ENE) 14:29:34 436.925 FM
AO-27 26 Oct 14:24:35 14:29:46 65° 258° (WSW) 14:34:59 436.795 MHz FM
Saudisat 1A 26 Oct 14:25:09 14:28:47 24° 37° (NE) 14:32:25 436.775 MHz
PCSat 26 Oct 14:29:32 14:31:22 12° 258° (WSW) 14:33:12 145.825 MHz
